(167910) = 2003 YO54 = 2005 EU99

Discovered at Catalina on 2005-03-03 by CSS.

Orbit

Orbit type: Main Belt

Note: WebGL enabled browser required.

epoch2023-09-13.0
epoch JD2460200.5
perihelion date2019-07-07.09100
perihelion JD2458671.59100
argument of perihelion (°)35.43156
ascending node (°)255.93112
inclination (°)4.76728
eccentricity0.0770586
perihelion distance (AU)2.4365018
Tisserand w.r.t. Jupiter3.4
ΔV w.r.t. Earth (km/sec)9.9
semimajor axis (AU)2.6399314
mean anomaly (°)351.31487
mean daily motion (°/day)0.22978140
aphelion distance (AU)2.843
period (years)4.29
P-vector [x]0.36232474
P-vector [y]-0.87316278
P-vector [z]-0.32604838
Q-vector [x]0.92855902
Q-vector [y]0.30790345
Q-vector [z]0.20730076
absolute magnitude15.99
phase slope0.15
uncertainty0
referenceMPEC 2024-A34
observations used566
oppositions17
arc length (days)8123
first opposition used2001
last opposition used2023
residual rms (arc-secs)0.75
perturbers coarse indicatorM-v
perturbers precise indicator003Ek
first observation date used2001-03-21.0
last observation date used2023-06-17.0
computer nameMPCLINUX
JD of orbit computation2456819.533050
perihelion JD uncertainty (days)2.2709E-04
argument of perihelion uncertainty (°)9.4652E-05
ascending node uncertainty (°)7.8950E-05
inclination uncertainty (°)6.0999E-06
eccentricity uncertainty 4.7947E-08
perihelion distance uncertainty (AU)1.3732E-07
Minimum Orbit Intersection Distances (in AU)
for orbit epoch: 2460200.5, reference: E2024-A34
Mercury1.9849
Venus1.71189
Earth1.4215
Mars0.97608
Jupiter2.2656
Saturn6.22091
Uranus15.6905
Neptune27.1398

Observations

578 total observations over interval: 2001 03 21.43404 – 2023 06 17.393414
These data are available for download (format description).

Date (UT) J2000 RA J2000 Dec Magn Location Ref
2001 03 21.43404 12 34 54.33 -11 20 53.1 21.2   608 – Haleakala-AMOS MPS 130264
2001 03 21.44488 12 34 53.80 -11 20 50.0 20.4   608 – Haleakala-AMOS MPS 130264
2001 03 21.45544 12 34 53.25 -11 20 46.6 21.2   608 – Haleakala-AMOS MPS 130264
2002 07 09.31829 21 30 30.99 -08 29 05.4 19.6   704 – Lincoln Laboratory ETS, New Mexico MPS 130264
2002 07 09.33151 21 30 30.58 -08 29 03.9 19.7   704 – Lincoln Laboratory ETS, New Mexico MPS 130264
2002 07 09.34469 21 30 30.21 -08 29 04.3 20.0   704 – Lincoln Laboratory ETS, New Mexico MPS 130264
2002 07 09.35787 21 30 29.77 -08 29 03.3 19.7   704 – Lincoln Laboratory ETS, New Mexico MPS 130264
2002 07 21.35469 21 23 17.43 -08 30 40.1 19.0   644 – Palomar Mountain/NEAT MPS 130264
2002 07 21.37547 21 23 16.47 -08 30 41.3 19.0   644 – Palomar Mountain/NEAT MPS 130264
2002 07 21.39995 21 23 15.37 -08 30 42.7 18.7   644 – Palomar Mountain/NEAT MPS 130264
2002 08 05.38306 21 10 57.04 -08 58 48.1 18.8   644 – Palomar Mountain/NEAT MPS 130264
2002 08 05.39371 21 10 56.43 -08 58 49.9 18.6   644 – Palomar Mountain/NEAT MPS 130264
2002 08 05.40567 21 10 55.80 -08 58 52.3 18.0   644 – Palomar Mountain/NEAT MPS 130264
2002 08 14.24687 21 03 09.47 -09 25 01.4 19.0   704 – Lincoln Laboratory ETS, New Mexico MPS 130264
2002 08 14.26191 21 03 08.71 -09 25 02.9 19.5   704 – Lincoln Laboratory ETS, New Mexico MPS 130264
2002 08 14.27678 21 03 07.84 -09 25 06.9 19.0   704 – Lincoln Laboratory ETS, New Mexico MPS 130264
2002 08 14.29212 21 03 06.99 -09 25 07.4 19.3   704 – Lincoln Laboratory ETS, New Mexico MPS 130264
2002 09 06.18955 20 47 23.43 -10 39 36.1 19.0   704 – Lincoln Laboratory ETS, New Mexico MPS 130264
2002 09 06.20373 20 47 23.08 -10 39 37.4 19.1   704 – Lincoln Laboratory ETS, New Mexico MPS 130264
2002 09 06.21794 20 47 22.60 -10 39 39.9 19.1   704 – Lincoln Laboratory ETS, New Mexico MPS 130264
2002 09 06.24653 20 47 21.94 -10 39 44.4 19.6   704 – Lincoln Laboratory ETS, New Mexico MPS 130264
2003 11 21.42363 04 40 37.36 +23 20 43.7 19.3   644 – Palomar Mountain/NEAT MPS 130264
2003 11 21.45169 04 40 35.72 +23 20 38.2 19.4   644 – Palomar Mountain/NEAT MPS 130264
2003 11 21.47333 04 40 34.43 +23 20 33.7 19.3   644 – Palomar Mountain/NEAT MPS 130264
2003 11 30.36495 04 31 47.47 +22 49 30.8 19.6 V 691 – Steward Observatory, Kitt Peak-Spacewatch MPS 130264
2003 11 30.39258 04 31 45.75 +22 49 24.6 20.0 V 691 – Steward Observatory, Kitt Peak-Spacewatch MPS 130264
2003 11 30.42057 04 31 44.03 +22 49 18.2 19.9 V 691 – Steward Observatory, Kitt Peak-Spacewatch MPS 130264
2003 12 14.20885 04 18 24.23 +21 56 51.9 20.2 V 691 – Steward Observatory, Kitt Peak-Spacewatch MPS 130264
2003 12 14.23696 04 18 22.66 +21 56 45.5 20.1 V 691 – Steward Observatory, Kitt Peak-Spacewatch MPS 130264
2003 12 14.26333 04 18 21.19 +21 56 39.6 20.4 V 691 – Steward Observatory, Kitt Peak-Spacewatch MPS 130264
2003 12 19.21915 04 14 07.31 +21 38 06.1 19.7   704 – Lincoln Laboratory ETS, New Mexico MPS 94930
2003 12 19.23227 04 14 06.57 +21 38 04.2 20.2   704 – Lincoln Laboratory ETS, New Mexico MPS 94930
2003 12 19.24561 04 14 05.94 +21 38 01.5 19.6   704 – Lincoln Laboratory ETS, New Mexico MPS 94930
2003 12 21.20995 04 12 32.93 +21 30 54.3 19.2   704 – Lincoln Laboratory ETS, New Mexico MPS 94930
2003 12 21.22324 04 12 32.27 +21 30 52.1 19.6   704 – Lincoln Laboratory ETS, New Mexico MPS 94930
2003 12 21.23661 04 12 31.67 +21 30 49.1 20.3   704 – Lincoln Laboratory ETS, New Mexico MPS 94930
2003 12 21.26316 04 12 30.44 +21 30 43.8 20.4   704 – Lincoln Laboratory ETS, New Mexico MPS 94930
2005 03 03.30289 10 36 21.19 +00 50 48.2 19.3 R 703 – Catalina Sky Survey MPS 129213
2005 03 03.31091 10 36 20.81 +00 50 50.4 18.9 R 703 – Catalina Sky Survey MPS 129213
2005 03 03.31905 10 36 20.32 +00 50 53.1 19.0 R 703 – Catalina Sky Survey MPS 129213
2005 03 03.32707 10 36 19.90 +00 50 56.0 18.9 R 703 – Catalina Sky Survey MPS 129213
2005 03 10.25241 10 30 24.98 +01 27 45.4 19.0 R 703 – Catalina Sky Survey MPS 129213
2005 03 10.26212 10 30 24.52 +01 27 48.0 18.8 R 703 – Catalina Sky Survey MPS 129213
2005 03 10.27178 10 30 24.02 +01 27 51.6 18.7 R 703 – Catalina Sky Survey MPS 129213
2005 03 10.28146 10 30 23.41 +01 27 55.1 19.3 R 703 – Catalina Sky Survey MPS 129213
2005 03 17.36024 10 24 49.51 +02 06 13.8 19.9 R 703 – Catalina Sky Survey MPS 130264
2005 03 17.36894 10 24 49.09 +02 06 15.5 19.2 R 703 – Catalina Sky Survey MPS 130264
2005 03 17.37954 10 24 48.58 +02 06 20.5 19.0 R 703 – Catalina Sky Survey MPS 130264
2005 03 17.38825 10 24 48.31 +02 06 23.5 19.8 R 703 – Catalina Sky Survey MPS 130264
2007 10 07.33151 02 49 20.86 +21 14 37.2   691 – Steward Observatory, Kitt Peak-Spacewatch MPS 218666
2007 10 07.34924 02 49 20.19 +21 14 34.5   691 – Steward Observatory, Kitt Peak-Spacewatch MPS 218666
2007 10 07.36688 02 49 19.51 +21 14 31.5   691 – Steward Observatory, Kitt Peak-Spacewatch MPS 218666
2007 10 09.31850 02 48 06.00 +21 08 46.8 20.1   704 – Lincoln Laboratory ETS, New Mexico MPS 218666
2007 10 09.32957 02 48 05.53 +21 08 44.8 20.2   704 – Lincoln Laboratory ETS, New Mexico MPS 218666
2007 10 09.35167 02 48 04.64 +21 08 39.8 20.0   704 – Lincoln Laboratory ETS, New Mexico MPS 218666
2007 10 11.34367 02 46 44.30 +21 02 11.2 20.0 V 691 – Steward Observatory, Kitt Peak-Spacewatch MPS 220539
2007 10 11.36483 02 46 43.37 +21 02 06.6 19.7 V 691 – Steward Observatory, Kitt Peak-Spacewatch MPS 220539
2007 10 11.38252 02 46 42.54 +21 02 01.8 19.3 V 691 – Steward Observatory, Kitt Peak-Spacewatch MPS 220539
2007 10 12.30701 02 46 03.66 +20 58 50.8 19.4   704 – Lincoln Laboratory ETS, New Mexico MPS 220539
2007 10 12.31822 02 46 03.20 +20 58 48.6 20.2   704 – Lincoln Laboratory ETS, New Mexico MPS 220539
2007 10 12.34062 02 46 02.20 +20 58 44.2 20.6   704 – Lincoln Laboratory ETS, New Mexico MPS 220539
2007 10 12.35183 02 46 01.65 +20 58 41.2 20.0   704 – Lincoln Laboratory ETS, New Mexico MPS 220539
2007 10 15.32720 02 43 49.26 +20 47 29.5 19.6 V 691 – Steward Observatory, Kitt Peak-Spacewatch MPS 220539
2007 10 15.34491 02 43 48.41 +20 47 25.6 19.5 V 691 – Steward Observatory, Kitt Peak-Spacewatch MPS 220539
2007 10 15.36300 02 43 47.53 +20 47 21.1 19.6 V 691 – Steward Observatory, Kitt Peak-Spacewatch MPS 220539
2007 10 19.30365 02 40 38.26 +20 30 37.9 20.7 V 691 – Steward Observatory, Kitt Peak-Spacewatch MPS 222524
2007 10 19.32139 02 40 37.33 +20 30 33.4 19.8 V 691 – Steward Observatory, Kitt Peak-Spacewatch MPS 222524
2007 10 19.33912 02 40 36.43 +20 30 28.6 19.5 V 691 – Steward Observatory, Kitt Peak-Spacewatch MPS 222524
2007 10 21.35996 02 38 54.13 +20 21 07.2 19.5 V 703 – Catalina Sky Survey MPS 222524
2007 10 21.36760 02 38 53.77 +20 21 04.6 19.6 V 703 – Catalina Sky Survey MPS 222524
2007 10 21.37524 02 38 53.30 +20 21 02.0 19.7 V 703 – Catalina Sky Survey MPS 222524
2007 10 21.38293 02 38 52.87 +20 21 00.4 19.4 V 703 – Catalina Sky Survey MPS 222524
2007 10 30.34878 02 30 52.77 +19 34 02.5 18.5 V 703 – Catalina Sky Survey MPS 224539
2007 10 30.35882 02 30 52.05 +19 33 59.1 18.7 V 703 – Catalina Sky Survey MPS 224539
2007 10 30.36887 02 30 51.66 +19 33 56.5 19.8 V 703 – Catalina Sky Survey MPS 224539
2007 10 30.37890 02 30 50.97 +19 33 52.4 20.5 V 703 – Catalina Sky Survey MPS 224539
2007 11 01.37847 02 29 01.03 +19 22 23.3 19.1   704 – Lincoln Laboratory ETS, New Mexico MPS 224539
2007 11 01.39046 02 29 00.39 +19 22 19.6 18.9   704 – Lincoln Laboratory ETS, New Mexico MPS 224539
2007 11 01.40245 02 28 59.68 +19 22 14.8 19.1   704 – Lincoln Laboratory ETS, New Mexico MPS 224539
2007 11 04.23083 02 26 24.75 +19 05 34.2 19.1 V G96 – Mt. Lemmon Survey MPS 226647
2007 11 04.23655 02 26 24.43 +19 05 32.2 19.0 V G96 – Mt. Lemmon Survey MPS 226647
2007 11 04.24227 02 26 24.10 +19 05 30.1 18.9 V G96 – Mt. Lemmon Survey MPS 226647
2007 11 04.24799 02 26 23.78 +19 05 28.1 18.9 V G96 – Mt. Lemmon Survey MPS 226647
2007 11 04.25128 02 26 23.52 +19 05 27.3 19.4   704 – Lincoln Laboratory ETS, New Mexico MPS 226647
2007 11 04.25208 02 26 23.56 +19 05 28.8 19.2   704 – Lincoln Laboratory ETS, New Mexico MPS 226647
2007 11 04.26332 02 26 22.96 +19 05 22.7 19.5   704 – Lincoln Laboratory ETS, New Mexico MPS 226647
